| time (UTC) | temp F | wind direction | speed MPH | gust MPH | rain 1hr in | rain 24hr in | rain mn in | humidity % | barometer mb |
| 20260905174601 | 88 | 69 | 1.0 | 7.0 | 0.00 | 0.00 | 0.00 | 54 | 1012.7 |
| 20260905174528 | 88 | 71 | 1.0 | 6.0 | 0.00 | 0.00 | 0.00 | 66 | 1012.3 |
| 20260905173108 | 87 | 244 | 2.0 | 4.0 | 0.00 | 0.00 | 0.00 | 55 | 1013.0 |
| 20260905173025 | 87 | 244 | 2.0 | 4.0 | 0.00 | 0.00 | 0.00 | 67 | 1012.5 |
| 20260905171603 | 86 | 0 | 0.0 | 0.0 | 0.00 | 0.00 | 0.00 | 57 | 1013.4 |
| 20260905171524 | 86 | 291 | 0.0 | 0.0 | 0.00 | 0.00 | 0.00 | 68 | 1012.9 |
| 20260905170022 | 86 | 291 | 1.0 | 5.0 | 0.00 | 0.00 | 0.00 | 68 | 1013.0 |
| 20260905164604 | 85 | 0 | 1.0 | 4.0 | 0.00 | 0.00 | 0.00 | 58 | 1013.7 |
| 20260905164522 | 85 | 325 | 1.0 | 4.0 | 0.00 | 0.00 | 0.00 | 69 | 1013.1 |
| 20260905163108 | 86 | 336 | 2.0 | 5.0 | 0.00 | 0.00 | 0.00 | 56 | 1014.0 |
| 20260905163024 | 85 | 336 | 2.0 | 5.0 | 0.00 | 0.00 | 0.00 | 68 | 1013.4 |
| 20260905161600 | 86 | 0 | 0.0 | 6.0 | 0.00 | 0.00 | 0.00 | 55 | 1014.1 |
| 20260905161523 | 86 | 92 | 0.0 | 3.0 | 0.00 | 0.00 | 0.00 | 67 | 1013.6 |
| 20260905160107 | 85 | 5 | 2.0 | 8.0 | 0.00 | 0.00 | 0.00 | 55 | 1014.1 |
| 20260905160019 | 85 | 13 | 3.0 | 6.0 | 0.00 | 0.00 | 0.00 | 66 | 1013.6 |
| 20260905154601 | 85 | 338 | 2.0 | 6.0 | 0.00 | 0.00 | 0.00 | 54 | 1014.1 |
| 20260905154517 | 85 | 336 | 2.0 | 5.0 | 0.00 | 0.00 | 0.00 | 66 | 1013.6 |
| 20260905153116 | 84 | 343 | 2.0 | 8.0 | 0.00 | 0.00 | 0.00 | 53 | 1014.1 |
| 20260905153019 | 84 | 343 | 2.0 | 8.0 | 0.00 | 0.00 | 0.00 | 64 | 1013.6 |
| 20260905151611 | 83 | 5 | 1.0 | 6.0 | 0.00 | 0.00 | 0.00 | 52 | 1014.0 |
| 20260905151514 | 83 | 5 | 0.0 | 4.0 | 0.00 | 0.00 | 0.00 | 64 | 1013.5 |
| 20260905150059 | 82 | 0 | 1.0 | 4.0 | 0.00 | 0.00 | 0.00 | 50 | 1014.0 |
| 20260905150016 | 82 | 313 | 1.0 | 4.0 | 0.00 | 0.00 | 0.00 | 61 | 1013.5 |
| 20260905144603 | 80 | 0 | 0.0 | 2.0 | 0.00 | 0.00 | 0.00 | 48 | 1013.9 |
| 20260905144511 | 80 | 192 | 0.0 | 2.0 | 0.00 | 0.00 | 0.00 | 60 | 1013.4 |
| 20260905143103 | 79 | 0 | 0.0 | 0.0 | 0.00 | 0.00 | 0.00 | 48 | 1014.1 |
| 20260905143003 | 79 | 189 | 0.0 | 0.0 | 0.00 | 0.00 | 0.00 | 60 | 1013.6 |
| 20260905141609 | 79 | 0 | 0.0 | 0.0 | 0.00 | 0.00 | 0.00 | 49 | 1014.2 |
| 20260905141502 | 79 | 189 | 0.0 | 0.0 | 0.00 | 0.00 | 0.00 | 60 | 1013.7 |
| 20260905140121 | 79 | 188 | 0.0 | 0.0 | 0.00 | 0.00 | 0.00 | 61 | 1013.6 |
| 20260905140108 | 79 | 0 | 0.0 | 0.0 | 0.00 | 0.00 | 0.00 | 49 | 1014.1 |
| 20260905134604 | 78 | 0 | 0.0 | 0.0 | 0.00 | 0.00 | 0.00 | 49 | 1013.9 |
| 20260905134602 | 78 | 188 | 0.0 | 0.0 | 0.00 | 0.00 | 0.00 | 61 | 1013.5 |
| 20260905133058 | 78 | 0 | 0.0 | 0.0 | 0.00 | 0.00 | 0.00 | 49 | 1013.9 |
| 20260905133055 | 78 | 188 | 0.0 | 0.0 | 0.00 | 0.00 | 0.00 | 61 | 1013.5 |
| 20260905131618 | 77 | 0 | 0.0 | 0.0 | 0.00 | 0.00 | 0.00 | 50 | 1013.7 |
| 20260905131558 | 77 | 188 | 0.0 | 0.0 | 0.00 | 0.00 | 0.00 | 61 | 1013.3 |
| 20260905130105 | 77 | 0 | 0.0 | 0.0 | 0.00 | 0.00 | 0.00 | 50 | 1013.6 |
| 20260905130053 | 77 | 360 | 0.0 | 0.0 | 0.00 | 0.00 | 0.00 | 61 | 1013.1 |
| 20260905124602 | 76 | 0 | 0.0 | 0.0 | 0.00 | 0.00 | 0.00 | 51 | 1013.5 |
| 20260905124554 | 76 | 360 | 0.0 | 0.0 | 0.00 | 0.00 | 0.00 | 62 | 1013.0 |
| 20260905123106 | 76 | 0 | 0.0 | 0.0 | 0.00 | 0.00 | 0.00 | 51 | 1013.5 |
| 20260905123055 | 76 | 360 | 0.0 | 0.0 | 0.00 | 0.00 | 0.00 | 62 | 1013.0 |
| 20260905121603 | 76 | 0 | 0.0 | 0.0 | 0.00 | 0.00 | 0.00 | 51 | 1013.4 |
| 20260905121552 | 76 | 360 | 0.0 | 0.0 | 0.00 | 0.00 | 0.00 | 62 | 1013.1 |
| 20260905120049 | 76 | 360 | 0.0 | 0.0 | 0.00 | 0.00 | 0.00 | 62 | 1012.7 |
| 20260905114604 | 76 | 0 | 0.0 | 0.0 | 0.00 | 0.00 | 0.00 | 51 | 1013.0 |
| 20260905114549 | 76 | 360 | 0.0 | 0.0 | 0.00 | 0.00 | 0.00 | 62 | 1012.6 |
| 20260905113101 | 76 | 0 | 0.0 | 0.0 | 0.00 | 0.00 | 0.00 | 51 | 1013.0 |
| 20260905113048 | 76 | 360 | 0.0 | 0.0 | 0.00 | 0.00 | 0.00 | 62 | 1012.6 |
| 20260905111601 | 76 | 0 | 0.0 | 0.0 | 0.00 | 0.00 | 0.00 | 51 | 1012.9 |
| 20260905111552 | 76 | 360 | 0.0 | 0.0 | 0.00 | 0.00 | 0.00 | 63 | 1012.5 |
| 20260905110106 | 76 | 0 | 0.0 | 0.0 | 0.00 | 0.00 | 0.00 | 51 | 1012.9 |
| 20260905110048 | 76 | 360 | 0.0 | 0.0 | 0.00 | 0.00 | 0.00 | 63 | 1012.5 |
| 20260905104606 | 76 | 0 | 0.0 | 0.0 | 0.00 | 0.00 | 0.00 | 52 | 1012.9 |
| 20260905104602 | 76 | 360 | 0.0 | 0.0 | 0.00 | 0.00 | 0.00 | 63 | 1012.5 |
| 20260905103059 | 76 | 0 | 0.0 | 0.0 | 0.00 | 0.00 | 0.00 | 53 | 1012.8 |
| 20260905103044 | 76 | 360 | 0.0 | 0.0 | 0.00 | 0.00 | 0.00 | 64 | 1012.3 |
| 20260905101602 | 76 | 0 | 0.0 | 0.0 | 0.00 | 0.00 | 0.00 | 53 | 1012.7 |
| 20260905101543 | 76 | 360 | 0.0 | 0.0 | 0.00 | 0.00 | 0.00 | 65 | 1012.2 |
| 20260905100120 | 76 | 0 | 0.0 | 0.0 | 0.00 | 0.00 | 0.00 | 53 | 1012.5 |
| 20260905100045 | 76 | 360 | 0.0 | 0.0 | 0.00 | 0.00 | 0.00 | 65 | 1012.1 |
| 20260905094558 | 76 | 0 | 0.0 | 0.0 | 0.00 | 0.00 | 0.00 | 53 | 1012.4 |
| 20260905094542 | 76 | 360 | 0.0 | 0.0 | 0.00 | 0.00 | 0.00 | 65 | 1012.0 |
| 20260905093102 | 77 | 0 | 0.0 | 0.0 | 0.00 | 0.00 | 0.00 | 53 | 1012.5 |
| 20260905093041 | 77 | 360 | 0.0 | 0.0 | 0.00 | 0.00 | 0.00 | 65 | 1012.0 |
| 20260905091600 | 76 | 0 | 0.0 | 0.0 | 0.00 | 0.00 | 0.00 | 53 | 1012.4 |
| 20260905091541 | 76 | 360 | 0.0 | 0.0 | 0.00 | 0.00 | 0.00 | 65 | 1012.0 |
| 20260905090136 | 76 | 0 | 0.0 | 0.0 | 0.00 | 0.00 | 0.00 | 53 | 1012.4 |
| 20260905090103 | 76 | 360 | 0.0 | 0.0 | 0.00 | 0.00 | 0.00 | 65 | 1011.9 |
| 20260905084556 | 76 | 0 | 0.0 | 0.0 | 0.00 | 0.00 | 0.00 | 53 | 1012.3 |
| 20260905084539 | 76 | 360 | 0.0 | 0.0 | 0.00 | 0.00 | 0.00 | 65 | 1011.9 |
| 20260905083105 | 77 | 0 | 0.0 | 0.0 | 0.00 | 0.00 | 0.00 | 53 | 1012.4 |
| 20260905083037 | 77 | 360 | 0.0 | 0.0 | 0.00 | 0.00 | 0.00 | 65 | 1012.1 |
| 20260905081604 | 77 | 0 | 0.0 | 0.0 | 0.00 | 0.00 | 0.00 | 53 | 1012.5 |
| 20260905081536 | 77 | 360 | 0.0 | 0.0 | 0.00 | 0.00 | 0.00 | 65 | 1012.0 |
| 20260905080059 | 77 | 0 | 0.0 | 0.0 | 0.00 | 0.00 | 0.00 | 53 | 1012.6 |
| 20260905080036 | 77 | 360 | 0.0 | 0.0 | 0.00 | 0.00 | 0.00 | 65 | 1012.1 |
| 20260905074607 | 77 | 0 | 0.0 | 0.0 | 0.00 | 0.00 | 0.00 | 55 | 1012.6 |
| 20260905074534 | 77 | 360 | 0.0 | 0.0 | 0.00 | 0.00 | 0.00 | 67 | 1012.3 |
| 20260905073105 | 77 | 0 | 0.0 | 0.0 | 0.00 | 0.00 | 0.00 | 55 | 1012.8 |
| 20260905073039 | 77 | 360 | 0.0 | 0.0 | 0.00 | 0.00 | 0.00 | 67 | 1012.3 |
| 20260905071603 | 77 | 0 | 0.0 | 0.0 | 0.00 | 0.00 | 0.00 | 56 | 1012.7 |
| 20260905071533 | 77 | 360 | 0.0 | 0.0 | 0.00 | 0.00 | 0.00 | 68 | 1012.2 |
| 20260905070035 | 77 | 360 | 0.0 | 0.0 | 0.00 | 0.00 | 0.00 | 68 | 1012.3 |
| 20260905064602 | 77 | 0 | 0.0 | 0.0 | 0.00 | 0.00 | 0.00 | 57 | 1012.7 |
| 20260905064531 | 77 | 360 | 0.0 | 0.0 | 0.00 | 0.00 | 0.00 | 69 | 1012.3 |
| 20260905063105 | 77 | 0 | 0.0 | 0.0 | 0.00 | 0.00 | 0.00 | 57 | 1012.8 |
| 20260905063030 | 77 | 360 | 0.0 | 0.0 | 0.00 | 0.00 | 0.00 | 69 | 1012.3 |
| 20260905061605 | 77 | 0 | 0.0 | 0.0 | 0.00 | 0.00 | 0.00 | 59 | 1012.8 |
| 20260905061538 | 77 | 360 | 0.0 | 0.0 | 0.00 | 0.00 | 0.00 | 70 | 1012.3 |
| 20260905060059 | 77 | 0 | 0.0 | 0.0 | 0.00 | 0.00 | 0.00 | 59 | 1012.7 |
| 20260905060029 | 77 | 360 | 0.0 | 0.0 | 0.00 | 0.00 | 0.00 | 70 | 1012.3 |
| 20260905054605 | 77 | 0 | 0.0 | 0.0 | 0.00 | 0.00 | 0.00 | 60 | 1012.7 |
| 20260905054532 | 77 | 360 | 0.0 | 0.0 | 0.00 | 0.00 | 0.00 | 71 | 1012.1 |
| 20260905053059 | 78 | 0 | 0.0 | 0.0 | 0.00 | 0.00 | 0.00 | 60 | 1012.7 |
| 20260905053025 | 78 | 360 | 0.0 | 0.0 | 0.00 | 0.00 | 0.00 | 72 | 1012.2 |
| 20260905051606 | 78 | 0 | 0.0 | 0.0 | 0.00 | 0.00 | 0.00 | 61 | 1012.7 |
| 20260905051524 | 78 | 360 | 0.0 | 0.0 | 0.00 | 0.00 | 0.00 | 72 | 1012.2 |
| 20260905050107 | 78 | 0 | 0.0 | 0.0 | 0.00 | 0.00 | 0.00 | 60 | 1012.8 |
| 20260905050021 | 78 | 360 | 0.0 | 0.0 | 0.00 | 0.00 | 0.00 | 71 | 1012.2 |
| 20260905044603 | 79 | 0 | 0.0 | 0.0 | 0.00 | 0.00 | 0.00 | 61 | 1012.8 |
| 20260905044527 | 79 | 360 | 0.0 | 0.0 | 0.00 | 0.00 | 0.00 | 72 | 1012.3 |
| 20260905043102 | 79 | 0 | 0.0 | 0.0 | 0.00 | 0.00 | 0.00 | 62 | 1013.0 |
| 20260905043020 | 79 | 360 | 0.0 | 0.0 | 0.00 | 0.00 | 0.00 | 73 | 1012.4 |
| 20260905041601 | 80 | 0 | 0.0 | 0.0 | 0.00 | 0.00 | 0.00 | 61 | 1013.1 |
| 20260905041527 | 80 | 360 | 0.0 | 0.0 | 0.00 | 0.00 | 0.00 | 73 | 1012.5 |
| 20260905040104 | 80 | 0 | 0.0 | 0.0 | 0.00 | 0.00 | 0.00 | 61 | 1013.2 |
| 20260905040019 | 80 | 360 | 0.0 | 0.0 | 0.00 | 0.00 | 0.00 | 73 | 1012.8 |
| 20260905034604 | 81 | 0 | 0.0 | 0.0 | 0.00 | 0.00 | 0.00 | 61 | 1013.3 |
| 20260905034518 | 81 | 360 | 0.0 | 0.0 | 0.00 | 0.00 | 0.00 | 73 | 1012.8 |
| 20260905033104 | 81 | 0 | 0.0 | 0.0 | 0.00 | 0.00 | 0.00 | 61 | 1013.3 |
| 20260905033018 | 81 | 360 | 0.0 | 0.0 | 0.00 | 0.00 | 0.00 | 72 | 1012.7 |
| 20260905031612 | 81 | 0 | 0.0 | 0.0 | 0.00 | 0.00 | 0.00 | 60 | 1013.4 |
| 20260905031518 | 81 | 360 | 0.0 | 0.0 | 0.00 | 0.00 | 0.00 | 72 | 1012.8 |
| 20260905030113 | 81 | 0 | 0.0 | 0.0 | 0.00 | 0.00 | 0.00 | 60 | 1013.3 |
| 20260905030017 | 81 | 360 | 0.0 | 0.0 | 0.00 | 0.00 | 0.00 | 72 | 1012.7 |
| 20260905024600 | 81 | 0 | 0.0 | 0.0 | 0.00 | 0.00 | 0.00 | 60 | 1013.4 |
| 20260905024517 | 81 | 360 | 0.0 | 0.0 | 0.00 | 0.00 | 0.00 | 72 | 1012.7 |
| 20260905023107 | 82 | 0 | 0.0 | 0.0 | 0.00 | 0.00 | 0.00 | 60 | 1013.1 |
| 20260905023016 | 82 | 360 | 0.0 | 0.0 | 0.00 | 0.00 | 0.00 | 71 | 1012.5 |
| 20260905021606 | 82 | 0 | 0.0 | 0.0 | 0.00 | 0.00 | 0.00 | 59 | 1012.8 |
| 20260905021527 | 82 | 360 | 0.0 | 0.0 | 0.00 | 0.00 | 0.00 | 71 | 1012.1 |
| 20260905020014 | 83 | 360 | 0.0 | 0.0 | 0.00 | 0.00 | 0.00 | 70 | 1011.9 |
| 20260905014601 | 83 | 0 | 0.0 | 0.0 | 0.00 | 0.00 | 0.00 | 58 | 1012.3 |
| 20260905014513 | 83 | 360 | 0.0 | 0.0 | 0.00 | 0.00 | 0.00 | 69 | 1011.6 |
| 20260905013103 | 84 | 360 | 0.0 | 3.0 | 0.00 | 0.00 | 0.00 | 58 | 1012.1 |
| 20260905013015 | 84 | 360 | 1.0 | 3.0 | 0.00 | 0.00 | 0.00 | 70 | 1011.5 |
| 20260905011606 | 85 | 0 | 0.0 | 0.0 | 0.00 | 0.00 | 0.00 | 56 | 1012.1 |
| 20260905011513 | 85 | 188 | 0.0 | 0.0 | 0.00 | 0.00 | 0.00 | 68 | 1011.4 |
| 20260905010109 | 86 | 0 | 0.0 | 0.0 | 0.00 | 0.00 | 0.00 | 54 | 1012.0 |
| 20260905010013 | 86 | 188 | 0.0 | 0.0 | 0.00 | 0.00 | 0.00 | 66 | 1011.3 |
| 20260905004603 | 88 | 0 | 0.0 | 3.0 | 0.00 | 0.00 | 0.00 | 54 | 1012.0 |
| 20260905004511 | 88 | 360 | 0.0 | 3.0 | 0.00 | 0.00 | 0.00 | 66 | 1011.2 |
| 20260905003102 | 89 | 188 | 0.0 | 2.0 | 0.00 | 0.00 | 0.00 | 52 | 1011.9 |
| 20260905003011 | 89 | 188 | 0.0 | 2.0 | 0.00 | 0.00 | 0.00 | 63 | 1011.2 |
| 20260905001606 | 90 | 188 | 1.0 | 3.0 | 0.00 | 0.00 | 0.00 | 48 | 1011.9 |
| 20260905001512 | 90 | 188 | 1.0 | 3.0 | 0.00 | 0.00 | 0.00 | 60 | 1011.3 |
| 20260905000107 | 91 | 188 | 2.0 | 4.0 | 0.00 | 0.00 | 0.00 | 47 | 1011.8 |
| 20260905000011 | 91 | 188 | 2.0 | 4.0 | 0.00 | 0.00 | 0.00 | 58 | 1011.2 |
| 20260904234601 | 92 | 189 | 2.0 | 5.0 | 0.00 | 0.00 | 0.00 | 45 | 1011.7 |
| 20260904234509 | 92 | 189 | 1.0 | 5.0 | 0.00 | 0.00 | 0.00 | 56 | 1011.0 |
| 20260904233104 | 92 | 173 | 2.0 | 8.0 | 0.00 | 0.00 | 0.00 | 45 | 1011.6 |
| 20260904233009 | 92 | 165 | 2.0 | 7.0 | 0.00 | 0.00 | 0.00 | 56 | 1010.9 |
| 20260904231604 | 93 | 178 | 4.0 | 8.0 | 0.00 | 0.00 | 0.00 | 44 | 1011.5 |
| 20260904231513 | 93 | 178 | 3.0 | 7.0 | 0.00 | 0.00 | 0.00 | 55 | 1010.8 |
| 20260904230112 | 93 | 172 | 1.0 | 6.0 | 0.00 | 0.00 | 0.00 | 42 | 1011.2 |
| 20260904230008 | 94 | 172 | 2.0 | 5.0 | 0.00 | 0.00 | 0.00 | 53 | 1010.7 |
| 20260904224600 | 94 | 162 | 1.0 | 6.0 | 0.00 | 0.00 | 0.00 | 41 | 1011.3 |
| 20260904224507 | 94 | 162 | 1.0 | 5.0 | 0.00 | 0.00 | 0.00 | 52 | 1010.7 |
| 20260904223106 | 94 | 125 | 3.0 | 7.0 | 0.00 | 0.00 | 0.00 | 40 | 1011.3 |
| 20260904223006 | 94 | 118 | 3.0 | 7.0 | 0.00 | 0.00 | 0.00 | 52 | 1010.8 |
| 20260904221610 | 94 | 252 | 3.0 | 7.0 | 0.00 | 0.00 | 0.00 | 40 | 1011.3 |
| 20260904221508 | 95 | 181 | 3.0 | 7.0 | 0.00 | 0.00 | 0.00 | 52 | 1010.6 |
| 20260904220121 | 95 | 171 | 3.0 | 6.0 | 0.00 | 0.00 | 0.00 | 38 | 1011.3 |
| 20260904220004 | 95 | 171 | 3.0 | 5.0 | 0.00 | 0.00 | 0.00 | 50 | 1010.7 |
| 20260904214602 | 95 | 162 | 1.0 | 7.0 | 0.00 | 0.00 | 0.00 | 38 | 1011.4 |
| 20260904214502 | 95 | 157 | 1.0 | 7.0 | 0.00 | 0.00 | 0.00 | 50 | 1010.8 |
| 20260904213105 | 94 | 174 | 2.0 | 6.0 | 0.00 | 0.00 | 0.00 | 39 | 1011.7 |
| 20260904213100 | 94 | 174 | 2.0 | 5.0 | 0.00 | 0.00 | 0.00 | 50 | 1011.0 |
| 20260904211608 | 95 | 207 | 3.0 | 6.0 | 0.00 | 0.00 | 0.00 | 41 | 1011.7 |
| 20260904211601 | 95 | 205 | 3.0 | 6.0 | 0.00 | 0.00 | 0.00 | 50 | 1011.1 |
| 20260904210105 | 94 | 124 | 2.0 | 6.0 | 0.00 | 0.00 | 0.00 | 40 | 1011.8 |
| 20260904210056 | 94 | 124 | 1.0 | 6.0 | 0.00 | 0.00 | 0.00 | 52 | 1011.1 |
| 20260904204606 | 94 | 163 | 3.0 | 7.0 | 0.00 | 0.00 | 0.00 | 41 | 1012.1 |
| 20260904204554 | 94 | 163 | 4.0 | 7.0 | 0.00 | 0.00 | 0.00 | 52 | 1011.4 |
| 20260904203108 | 93 | 0 | 0.0 | 5.0 | 0.00 | 0.00 | 0.00 | 41 | 1012.3 |
| 20260904203051 | 93 | 137 | 0.0 | 4.0 | 0.00 | 0.00 | 0.00 | 53 | 1011.7 |
| 20260904201601 | 93 | 0 | 0.0 | 6.0 | 0.00 | 0.00 | 0.00 | 44 | 1012.7 |
| 20260904201549 | 93 | 150 | 0.0 | 6.0 | 0.00 | 0.00 | 0.00 | 55 | 1012.0 |
| 20260904200113 | 94 | 103 | 0.0 | 5.0 | 0.00 | 0.00 | 0.00 | 43 | 1012.7 |
| 20260904200047 | 94 | 104 | 1.0 | 6.0 | 0.00 | 0.00 | 0.00 | 54 | 1012.0 |
| 20260904194610 | 93 | 334 | 1.0 | 5.0 | 0.00 | 0.00 | 0.00 | 43 | 1013.0 |
| 20260904194558 | 93 | 334 | 1.0 | 5.0 | 0.00 | 0.00 | 0.00 | 55 | 1012.4 |
| 20260904193100 | 93 | 185 | 2.0 | 5.0 | 0.00 | 0.00 | 0.00 | 45 | 1013.0 |
| 20260904193044 | 93 | 185 | 1.0 | 5.0 | 0.00 | 0.00 | 0.00 | 56 | 1012.6 |
| 20260904191602 | 92 | 0 | 0.0 | 6.0 | 0.00 | 0.00 | 0.00 | 45 | 1013.2 |
| 20260904191543 | 92 | 96 | 0.0 | 4.0 | 0.00 | 0.00 | 0.00 | 57 | 1012.7 |
| 20260904190109 | 93 | 337 | 2.0 | 4.0 | 0.00 | 0.00 | 0.00 | 46 | 1013.5 |
| 20260904190042 | 93 | 337 | 2.0 | 4.0 | 0.00 | 0.00 | 0.00 | 58 | 1013.0 |
| 20260904184612 | 93 | 132 | 2.0 | 7.0 | 0.00 | 0.00 | 0.00 | 46 | 1013.6 |
| 20260904184540 | 93 | 132 | 2.0 | 5.0 | 0.00 | 0.00 | 0.00 | 58 | 1013.0 |
| 20260904183103 | 91 | 223 | 1.0 | 9.0 | 0.00 | 0.00 | 0.00 | 49 | 1013.7 |
| 20260904183036 | 91 | 223 | 0.0 | 8.0 | 0.00 | 0.00 | 0.00 | 60 | 1013.2 |
| 20260904181603 | 91 | 0 | 3.0 | 7.0 | 0.00 | 0.00 | 0.00 | 48 | 1013.8 |
| 20260904181538 | 91 | 115 | 3.0 | 6.0 | 0.00 | 0.00 | 0.00 | 59 | 1013.4 |
| 20260904180117 | 90 | 103 | 1.0 | 5.0 | 0.00 | 0.00 | 0.00 | 49 | 1014.1 |
| 20260904180046 | 90 | 103 | 1.0 | 5.0 | 0.00 | 0.00 | 0.00 | 60 | 1013.6 |